| time (UTC) | temp F | wind direction | speed MPH | gust MPH | rain 1hr in | rain 24hr in | rain mn in | humidity % | barometer mb |
| 20260902074718 | 78 | 180 | 0.0 | 0.0 | 0.00 | 0.00 | 0.00 | 81 | 1007.5 |
| 20260902073816 | 79 | 180 | 0.0 | 0.0 | 0.00 | 0.00 | 0.00 | 80 | 1007.6 |
| 20260902072818 | 79 | 180 | 0.0 | 0.0 | 0.00 | 0.00 | 0.00 | 79 | 1007.6 |
| 20260902071817 | 79 | 180 | 0.0 | 2.0 | 0.00 | 0.00 | 0.00 | 78 | 1007.6 |
| 20260902070817 | 79 | 135 | 0.0 | 0.0 | 0.00 | 0.00 | 0.00 | 79 | 1007.6 |
| 20260902065817 | 80 | 135 | 0.0 | 2.0 | 0.00 | 0.00 | 0.00 | 77 | 1007.6 |
| 20260902064817 | 80 | 180 | 0.0 | 0.0 | 0.00 | 0.00 | 0.00 | 76 | 1007.6 |
| 20260902063817 | 80 | 168 | 0.0 | 2.0 | 0.00 | 0.00 | 0.00 | 76 | 1007.3 |
| 20260902062916 | 80 | 180 | 0.0 | 0.0 | 0.00 | 0.00 | 0.00 | 76 | 1007.3 |
| 20260902061919 | 80 | 148 | 1.0 | 4.0 | 0.00 | 0.00 | 0.00 | 77 | 1007.3 |
| 20260902061018 | 81 | 180 | 0.0 | 0.0 | 0.00 | 0.00 | 0.00 | 76 | 1007.3 |
| 20260902055017 | 81 | 180 | 0.0 | 0.0 | 0.00 | 0.00 | 0.00 | 76 | 1007.3 |
| 20260902053017 | 81 | 180 | 1.0 | 3.0 | 0.00 | 0.00 | 0.00 | 75 | 1006.9 |
| 20260902052019 | 81 | 180 | 0.0 | 1.0 | 0.00 | 0.00 | 0.00 | 73 | 1006.9 |
| 20260902051017 | 82 | 180 | 0.0 | 2.0 | 0.00 | 0.00 | 0.00 | 73 | 1007.3 |
| 20260902045030 | 82 | 175 | 1.0 | 3.0 | 0.00 | 0.00 | 0.00 | 72 | 1006.9 |
| 20260902044031 | 83 | 180 | 0.0 | 3.0 | 0.00 | 0.00 | 0.00 | 71 | 1007.3 |
| 20260902043131 | 83 | 171 | 2.0 | 5.0 | 0.00 | 0.00 | 0.00 | 70 | 1006.9 |
| 20260902042131 | 83 | 159 | 0.0 | 3.0 | 0.00 | 0.00 | 0.00 | 69 | 1006.9 |
| 20260902040229 | 84 | 270 | 0.0 | 2.0 | 0.00 | 0.00 | 0.00 | 68 | 1006.6 |
| 20260902035232 | 84 | 180 | 0.0 | 2.0 | 0.00 | 0.00 | 0.00 | 67 | 1006.6 |
| 20260902034231 | 85 | 180 | 0.0 | 2.0 | 0.00 | 0.00 | 0.00 | 66 | 1006.2 |
| 20260902033231 | 85 | 157 | 1.0 | 2.0 | 0.00 | 0.00 | 0.00 | 65 | 1006.2 |
| 20260902032330 | 85 | 135 | 1.0 | 3.0 | 0.00 | 0.00 | 0.00 | 64 | 1006.2 |
| 20260902031430 | 85 | 135 | 0.0 | 0.0 | 0.00 | 0.00 | 0.00 | 63 | 1005.9 |
| 20260902030432 | 85 | 135 | 0.0 | 3.0 | 0.00 | 0.00 | 0.00 | 63 | 1005.6 |
| 20260902025531 | 85 | 135 | 0.0 | 1.0 | 0.00 | 0.00 | 0.00 | 62 | 1005.6 |
| 20260902024531 | 86 | 135 | 0.0 | 0.0 | 0.00 | 0.00 | 0.00 | 61 | 1005.2 |
| 20260902023531 | 86 | 135 | 0.0 | 0.0 | 0.00 | 0.00 | 0.00 | 61 | 1005.2 |
| 20260902021537 | 86 | 180 | 0.0 | 0.0 | 0.00 | 0.00 | 0.00 | 59 | 1004.9 |
| 20260902020630 | 87 | 180 | 0.0 | 0.0 | 0.00 | 0.00 | 0.00 | 59 | 1004.9 |
| 20260902015730 | 87 | 180 | 1.0 | 5.0 | 0.00 | 0.00 | 0.00 | 58 | 1004.7 |
| 20260902014731 | 87 | 172 | 0.0 | 2.0 | 0.00 | 0.00 | 0.00 | 56 | 1004.5 |
| 20260902013731 | 88 | 179 | 0.0 | 2.0 | 0.00 | 0.00 | 0.00 | 55 | 1004.3 |
| 20260902012731 | 89 | 136 | 1.0 | 3.0 | 0.00 | 0.00 | 0.00 | 54 | 1004.0 |
| 20260902011733 | 90 | 158 | 2.0 | 3.0 | 0.00 | 0.00 | 0.00 | 51 | 1003.8 |
| 20260902010831 | 90 | 90 | 0.0 | 3.0 | 0.00 | 0.00 | 0.00 | 48 | 1003.8 |
| 20260902004830 | 91 | 90 | 0.0 | 0.0 | 0.00 | 0.00 | 0.00 | 46 | 1003.5 |
| 20260902003831 | 92 | 180 | 0.0 | 0.0 | 0.00 | 0.00 | 0.00 | 46 | 1003.5 |
| 20260902002831 | 92 | 90 | 0.0 | 0.0 | 0.00 | 0.00 | 0.00 | 46 | 1003.5 |
| 20260902001831 | 92 | 90 | 1.0 | 4.0 | 0.00 | 0.00 | 0.00 | 45 | 1003.5 |
| 20260902000832 | 92 | 112 | 0.0 | 0.0 | 0.00 | 0.00 | 0.00 | 46 | 1003.5 |
| 20260901235930 | 93 | 270 | 0.0 | 0.0 | 0.00 | 0.00 | 0.00 | 46 | 1003.5 |
| 20260901234931 | 92 | 67 | 0.0 | 0.0 | 0.00 | 0.00 | 0.00 | 46 | 1003.5 |
| 20260901233933 | 93 | 67 | 0.0 | 2.0 | 0.00 | 0.00 | 0.00 | 46 | 1003.5 |
| 20260901232931 | 94 | 67 | 0.0 | 4.0 | 0.00 | 0.00 | 0.00 | 44 | 1003.5 |
| 20260901232029 | 96 | 67 | 3.0 | 5.0 | 0.00 | 0.00 | 0.00 | 43 | 1003.2 |
| 20260901231031 | 97 | 90 | 3.0 | 6.0 | 0.00 | 0.00 | 0.00 | 41 | 1002.8 |
| 20260901230130 | 99 | 106 | 0.0 | 3.0 | 0.00 | 0.00 | 0.00 | 40 | 1002.1 |
| 20260901225131 | 99 | 157 | 0.0 | 0.0 | 0.00 | 0.00 | 0.00 | 39 | 1002.1 |
| 20260901224132 | 98 | 67 | 0.0 | 2.0 | 0.00 | 0.00 | 0.00 | 40 | 1002.1 |
| 20260901223132 | 97 | 127 | 0.0 | 0.0 | 0.00 | 0.00 | 0.00 | 42 | 1002.8 |
| 20260901222131 | 95 | 66 | 0.0 | 2.0 | 0.00 | 0.00 | 0.00 | 42 | 1003.2 |
| 20260901221229 | 95 | 45 | 1.0 | 4.0 | 0.00 | 0.00 | 0.00 | 43 | 1003.2 |
| 20260901220232 | 95 | 45 | 2.0 | 4.0 | 0.00 | 0.00 | 0.00 | 42 | 1002.8 |
| 20260901215231 | 97 | 67 | 2.0 | 5.0 | 0.00 | 0.00 | 0.00 | 40 | 1002.8 |
| 20260901214330 | 99 | 135 | 0.0 | 2.0 | 0.00 | 0.00 | 0.00 | 39 | 1002.4 |
| 20260901213331 | 100 | 36 | 2.0 | 6.0 | 0.00 | 0.00 | 0.00 | 36 | 1002.4 |
| 20260901212330 | 98 | 24 | 2.0 | 4.0 | 0.00 | 0.00 | 0.00 | 39 | 1002.4 |
| 20260901211332 | 98 | 139 | 2.0 | 4.0 | 0.00 | 0.00 | 0.00 | 40 | 1002.8 |
| 20260901210331 | 97 | 135 | 0.0 | 2.0 | 0.00 | 0.00 | 0.00 | 42 | 1003.5 |
| 20260901204430 | 95 | 45 | 1.0 | 3.0 | 0.00 | 0.00 | 0.00 | 44 | 1004.2 |
| 20260901203430 | 95 | 78 | 1.0 | 3.0 | 0.00 | 0.00 | 0.00 | 44 | 1003.8 |
| 20260901202431 | 98 | 22 | 0.0 | 0.0 | 0.00 | 0.00 | 0.00 | 42 | 1004.2 |
| 20260901201432 | 96 | 40 | 2.0 | 6.0 | 0.00 | 0.00 | 0.00 | 43 | 1004.5 |
| 20260901200529 | 97 | 67 | 3.0 | 5.0 | 0.00 | 0.00 | 0.00 | 43 | 1004.5 |
| 20260901195530 | 97 | 67 | 1.0 | 2.0 | 0.00 | 0.00 | 0.00 | 44 | 1004.2 |
| 20260901194533 | 98 | 150 | 0.0 | 3.0 | 0.00 | 0.00 | 0.00 | 44 | 1004.2 |
| 20260901193529 | 98 | 72 | 2.0 | 5.0 | 0.00 | 0.00 | 0.00 | 42 | 1004.5 |
| 20260901192530 | 97 | 358 | 0.0 | 3.0 | 0.00 | 0.00 | 0.00 | 44 | 1004.5 |
| 20260901191532 | 98 | 135 | 0.0 | 0.0 | 0.00 | 0.00 | 0.00 | 46 | 1004.9 |
| 20260901190629 | 97 | 135 | 0.0 | 0.0 | 0.00 | 0.00 | 0.00 | 44 | 1004.9 |
| 20260901185631 | 96 | 135 | 1.0 | 2.0 | 0.00 | 0.00 | 0.00 | 46 | 1005.6 |
| 20260901183631 | 94 | 283 | 3.0 | 8.0 | 0.00 | 0.00 | 0.00 | 47 | 1005.6 |
| 20260901182631 | 94 | 292 | 0.0 | 0.0 | 0.00 | 0.00 | 0.00 | 48 | 1005.9 |
| 20260901181632 | 94 | 162 | 1.0 | 6.0 | 0.00 | 0.00 | 0.00 | 47 | 1006.6 |
| 20260901180632 | 93 | 67 | 0.0 | 3.0 | 0.00 | 0.00 | 0.00 | 49 | 1006.2 |
| 20260901174731 | 94 | 105 | 0.0 | 4.0 | 0.00 | 0.00 | 0.00 | 48 | 1006.4 |
| 20260901173730 | 95 | 180 | 1.0 | 6.0 | 0.00 | 0.00 | 0.00 | 47 | 1006.6 |
| 20260901172829 | 94 | 139 | 0.0 | 3.0 | 0.00 | 0.00 | 0.00 | 51 | 1006.9 |
| 20260901171831 | 93 | 54 | 3.0 | 5.0 | 0.00 | 0.00 | 0.00 | 50 | 1007.3 |
| 20260901170930 | 93 | 124 | 2.0 | 5.0 | 0.00 | 0.00 | 0.00 | 51 | 1007.6 |
| 20260901165930 | 92 | 135 | 0.0 | 0.0 | 0.00 | 0.00 | 0.00 | 52 | 1007.6 |
| 20260901164929 | 92 | 360 | 0.0 | 3.0 | 0.00 | 0.00 | 0.00 | 54 | 1007.6 |
| 20260901163930 | 91 | 300 | 1.0 | 3.0 | 0.00 | 0.00 | 0.00 | 51 | 1007.6 |
| 20260901162930 | 91 | 180 | 0.0 | 0.0 | 0.00 | 0.00 | 0.00 | 56 | 1007.6 |
| 20260901162029 | 90 | 214 | 0.0 | 2.0 | 0.00 | 0.00 | 0.00 | 61 | 1008.0 |
| 20260901160031 | 88 | 273 | 1.0 | 4.0 | 0.00 | 0.00 | 0.00 | 61 | 1008.0 |
| 20260901155030 | 87 | 356 | 1.0 | 4.0 | 0.00 | 0.00 | 0.00 | 65 | 1008.0 |
| 20260901154031 | 86 | 292 | 0.0 | 0.0 | 0.00 | 0.00 | 0.00 | 67 | 1008.0 |
| 20260901153032 | 84 | 180 | 0.0 | 0.0 | 0.00 | 0.00 | 0.00 | 72 | 1008.3 |
| 20260901152032 | 83 | 229 | 1.0 | 4.0 | 0.00 | 0.00 | 0.00 | 72 | 1008.7 |
| 20260901151130 | 82 | 180 | 0.0 | 1.0 | 0.00 | 0.00 | 0.00 | 78 | 1008.6 |
| 20260901150130 | 82 | 299 | 2.0 | 5.0 | 0.00 | 0.00 | 0.00 | 79 | 1008.7 |
| 20260901145130 | 81 | 180 | 0.0 | 0.0 | 0.00 | 0.00 | 0.00 | 82 | 1009.0 |
| 20260901143128 | 80 | 270 | 0.0 | 0.0 | 0.00 | 0.00 | 0.00 | 87 | 1009.4 |
| 20260901142130 | 80 | 297 | 4.0 | 6.0 | 0.00 | 0.00 | 0.00 | 88 | 1009.4 |
| 20260901141129 | 79 | 180 | 1.0 | 6.0 | 0.00 | 0.00 | 0.00 | 91 | 1009.4 |
| 20260901140146 | 78 | 320 | 2.0 | 6.0 | 0.00 | 0.00 | 0.00 | 92 | 1009.4 |
| 20260901135130 | 78 | 180 | 0.0 | 0.0 | 0.00 | 0.00 | 0.00 | 95 | 1009.7 |
| 20260901134129 | 78 | 180 | 0.0 | 1.0 | 0.00 | 0.00 | 0.00 | 96 | 1009.4 |
| 20260901133130 | 77 | 180 | 0.0 | 0.0 | 0.00 | 0.00 | 0.00 | 97 | 1009.4 |
| 20260901132129 | 77 | 270 | 0.0 | 0.0 | 0.00 | 0.00 | 0.00 | 97 | 1009.4 |
| 20260901131129 | 76 | 197 | 0.0 | 1.0 | 0.00 | 0.00 | 0.00 | 97 | 1009.7 |
| 20260901130131 | 75 | 315 | 0.0 | 0.0 | 0.00 | 0.00 | 0.00 | 96 | 1009.4 |
| 20260901125131 | 75 | 315 | 0.0 | 0.0 | 0.00 | 0.00 | 0.00 | 94 | 1009.4 |
| 20260901124129 | 74 | 315 | 0.0 | 0.0 | 0.00 | 0.00 | 0.00 | 94 | 1009.4 |
| 20260901123131 | 74 | 315 | 0.0 | 0.0 | 0.00 | 0.00 | 0.00 | 93 | 1009.4 |
| 20260901121129 | 75 | 315 | 0.0 | 0.0 | 0.00 | 0.00 | 0.00 | 95 | 1009.0 |
| 20260901120131 | 75 | 300 | 2.0 | 5.0 | 0.00 | 0.00 | 0.00 | 94 | 1009.0 |
| 20260901115230 | 75 | 315 | 0.0 | 0.0 | 0.00 | 0.00 | 0.00 | 92 | 1009.0 |
| 20260901114231 | 75 | 180 | 0.0 | 0.0 | 0.00 | 0.00 | 0.00 | 95 | 1009.0 |
| 20260901113330 | 75 | 180 | 0.0 | 0.0 | 0.00 | 0.00 | 0.00 | 95 | 1009.0 |
| 20260901112330 | 75 | 180 | 0.0 | 0.0 | 0.00 | 0.00 | 0.00 | 96 | 1009.0 |
| 20260901111331 | 75 | 315 | 0.0 | 0.0 | 0.00 | 0.00 | 0.00 | 96 | 1009.0 |
| 20260901110330 | 75 | 315 | 0.0 | 0.0 | 0.00 | 0.00 | 0.00 | 96 | 1009.0 |
| 20260901105346 | 76 | 315 | 0.0 | 0.0 | 0.00 | 0.00 | 0.00 | 97 | 1009.0 |
| 20260901104329 | 76 | 212 | 0.0 | 4.0 | 0.00 | 0.00 | 0.00 | 97 | 1009.0 |
| 20260901103330 | 76 | 135 | 0.0 | 1.0 | 0.00 | 0.00 | 0.00 | 97 | 1008.7 |
| 20260901101331 | 76 | 180 | 1.0 | 2.0 | 0.00 | 0.00 | 0.00 | 97 | 1008.3 |
| 20260901095329 | 77 | 160 | 0.0 | 3.0 | 0.00 | 0.00 | 0.00 | 97 | 1008.7 |
| 20260901094429 | 77 | 166 | 1.0 | 5.0 | 0.00 | 0.00 | 0.00 | 97 | 1008.7 |
| 20260901093429 | 77 | 180 | 1.0 | 4.0 | 0.00 | 0.00 | 0.00 | 97 | 1008.7 |
| 20260901091429 | 77 | 180 | 0.0 | 3.0 | 0.00 | 0.00 | 0.00 | 96 | 1009.0 |
| 20260901090528 | 77 | 180 | 0.0 | 1.0 | 0.00 | 0.00 | 0.00 | 95 | 1008.7 |
| 20260901085529 | 77 | 167 | 1.0 | 4.0 | 0.00 | 0.00 | 0.00 | 95 | 1008.7 |
| 20260901083529 | 78 | 167 | 1.0 | 4.0 | 0.00 | 0.00 | 0.00 | 93 | 1008.7 |
| 20260901082528 | 78 | 157 | 0.0 | 2.0 | 0.00 | 0.00 | 0.00 | 93 | 1008.7 |
| 20260901081531 | 78 | 180 | 0.0 | 0.0 | 0.00 | 0.00 | 0.00 | 92 | 1008.7 |
| 20260901075529 | 78 | 180 | 0.0 | 2.0 | 0.00 | 0.00 | 0.00 | 91 | 1008.3 |